星链-32696 (STARLINK-32696)

导读

STARLINK-32696是美国太空探索技术公司(SpaceX)星链卫星互联网项目的成员,于2024年12月13日由美国发射入轨。星链项目旨在构建覆盖全球的低轨卫星互联网星座,该卫星承担着为全球偏远地区、海洋空域等提供宽带网络接入服务的任务,进一步扩充了星链星座的服务覆盖能力与通信容量。

基本信息
目录编号:
62310
目录名称:
STARLINK-32696
国际标识:
2024-239K
轨道中心:
EARTH
卫星名称:
星链-32696
卫星全名:
星链-32696 (STARLINK-32696)
卫星状态:
在轨 (已飞行548 天)
发射日期:
2024-12-13 UTC
国别 :
美国 (US)
星等 :
--
轨道信息
数据来源 国际轨道数据 AOE轨道数据
星历时间 2026-06-13T21:37:29+0800
20小时前
查看轨道信息
2026-06-14T01:00:00+0800
16小时前
查看轨道信息
半长轴 6840.845km 6840.891km
偏心率 0.0001926 0.0001376
轨道倾角 53.161° 53.159°
近地点辐角 86.041° 94.260°
升交点赤经 107.847° 107.188°
平近点角 274.082° 323.154°
近地点 461.39km 461.812km
远地点 464.026km 463.696km
周期 93.848分钟 93.849分钟
每日圈数 15.343984 15.343832
详细信息
固有亮度:
5
最大亮度:
2.5
卫星平台:
Starlink V1.0
覆盖范围:
全球
运营商:
太空探索技术公司
运营商所在国:
美国
制造商(研发单位):
太空探索技术公司
制造商所在国:
美国
使用方式:
暂无
卫星简介
Starlink 计划是 SpaceX 推出的全球卫星互联网项目,通过发射低轨道卫星,为全球尤其是偏远地区提供高速、低延迟的互联网服务。自 2019 年起,Starlink 已部署数千颗卫星,旨在缩小全球数字鸿沟,推动互联网普及。该项目还为军事、航空等行业提供通信支持,带来广泛经济效益。
2D轨道图
3D轨道图
轨道高度分析图
轨道倾角分析图
轨道综合分析图
查看轨道综合分析图